Tracking 29892 objects as of 21-Nov-2024
HD Live streaming from Space Station
objects crossing your sky now

STARLINK-30915

Track STARLINK-30915 now!
10-day predictions
STARLINK-30915 is classified as:


NORAD ID: 58380
Int'l Code: 2023-178G
Perigee: 453.6 km
Apogee: 455.2 km
Inclination: 53.2 °
Period: 93.5 minutes
Semi major axis: 6825 km
RCS: Unknown
Launch date: November 20, 2023
Source: United States (US)
Launch site: AIR FORCE WESTERN TEST RANGE (AFWTR)
Your satellite tracking list
Your tracking list is empty




NASA's NSSDC Master Catalog

Two Line Element Set (TLE):
1 58380U 23178G   24325.36785436 -.00001077  00000-0 -16950-4 0  9995
2 58380  53.1610 319.6234 0001157  87.6412 272.4726 15.39612657 58426
Source of the keplerian elements: AFSPC